This demonstration page uses our WeatherBlox Daily Observations layout. Learn more.

Left ArrowRight Arrow

41.86663, -103.66717

Hourly Observations for September 11, 2020

Temp ( °F °C ) Dew Point ( °F °C ) Humidity (%) Winds ( mph kmh ) Pressure ( in mb ) Visibility ( mi km ) Precip ( " mm )
12:53 am 00:53 Cloudy with Light Rain 47 8.3 46 7.8 97 97 S 6 9 30.21 1023 10 16.0934 0.07 1.778
1:53 am 01:53 Cloudy 47 8.3 46 7.8 97 97 SE 5 7 30.19 1023 10 16.0934 0.01 0.254
2:53 am 02:53 Cloudy 47 8.3 46 7.8 97 97 ESE 5 7 30.17 1022 10 16.0934 0 0
3:53 am 03:53 Cloudy 47 8.3 46 7.8 97 97 ESE 5 7 30.16 1021 10 16.0934 0 0
4:53 am 04:53 Cloudy 47 8.3 45 7.2 93 93 ESE 6 9 30.13 1020 10 16.0934 0 0
5:53 am 05:53 Cloudy 47 8.3 45 7.2 93 93 ESE 7 11 30.12 1020 9 14.48406 0.001 0.001
6:14 am 06:14 Cloudy 47 8.3 45 7.2 93 93 undefined N/A 30.14 1021 10 16.0934 0 0
6:37 am 06:37 Cloudy 47 8.3 46 7.8 97 97 ESE 7 11 30.13 1020 10 16.0934 0 0
6:53 am 06:53 Cloudy 47 8.3 46 7.8 97 97 ESE 8 13 30.12 1020 10 16.0934 0 0
7:53 am 07:53 Cloudy 48 8.9 46 7.8 93 93 E 7 11 30.11 1020 10 16.0934 0 0
8:53 am 08:53 Cloudy 50 10 48 8.9 93 93 SSE 7 11 30.09 1019 10 16.0934 0 0
9:49 am 09:49 Cloudy 52 11 46 8 82 82 W 5 7 30.06 1018 10 16.0934 0 0
9:53 am 09:53 Cloudy 52 11.1 47 8.3 83 83 undefined N/A 30.09 1019 10 16.0934 0 0
10:34 am 10:34 Cloudy with Light Rain 51 10.6 45 7.2 80 80 SW 10 17 30.06 1018 10 16.0934 0.01 0.254
10:53 am 10:53 Cloudy with Light Rain 52 11.1 46 7.8 80 80 SSW 10 17 30.07 1018 10 16.0934 0.01 0.254
11:53 am 11:53 Cloudy with Light Rain 51 10.6 48 8.9 89 89 SSW 9 15 30.06 1018 10 16.0934 0.01 0.254
12:53 pm 12:53 Cloudy 53 11.7 48 8.9 83 83 SW 7 11 30.03 1017 10 16.0934 0.001 0.001
1:09 pm 13:09 Cloudy 53 11.7 46 7.8 77 77 WSW 10 17 29.98 1015 10 16.0934 0 0
1:22 pm 13:22 Cloudy 54 12.2 46 7.8 75 75 W 12 19 29.97 1015 10 16.0934 0 0
1:53 pm 13:53 Cloudy 56 13.3 46 7.8 70 70 W 13 20 29.99 1016 10 16.0934 0 0
2:53 pm 14:53 Cloudy 56 13.3 44 6.7 65 65 WSW 14 22 29.97 1015 10 16.0934 0 0
3:53 pm 15:53 Cloudy 57 13.9 45 7.2 64 64 W 10 17 29.96 1015 10 16.0934 0 0
4:53 pm 16:53 Cloudy 57 13.9 46 7.8 67 67 W 9 15 29.96 1015 10 16.0934 0 0
5:53 pm 17:53 Mostly Cloudy 55 12.8 47 8.3 74 74 W 13 20 29.96 1015 10 16.0934 0 0
6:53 pm 18:53 Mostly Cloudy 55 12.8 47 8.3 74 74 WNW 8 13 29.96 1014 10 16.0934 0 0
7:53 pm 19:53 Clear 50 10 46 7.8 86 86 undefined N/A 29.97 1015 10 16.0934 0 0
8:53 pm 20:53 Clear 49 9.4 46 7.8 90 90 W 5 7 29.98 1015 10 16.0934 0 0
9:53 pm 21:53 Cloudy 48 8.9 46 7.8 93 93 WNW 3 6 29.98 1015 10 16.0934 0 0
10:53 pm 22:53 Mostly Cloudy 48 8.9 46 7.8 93 93 NNW 5 7 30.01 1016 10 16.0934 0 0
11:53 pm 23:53 Mostly Cloudy 50 10 46 7.8 86 86 Calm 29.98 1015 10 16.0934 0 0

Powered by AerisWeather